Tracking 29892 objects as of 21-Nov-2024
HD Live streaming from Space Station
objects crossing your sky now

OBJECT N

Track OBJECT N now!
10-day predictions


NORAD ID: 61906
Int'l Code: 2024-205N
Perigee: 518.7 km
Apogee: 537.4 km
Inclination: 97.5 °
Period: 95.0 minutes
Semi major axis: 6899 km
RCS: Unknown
Launch date: November 11, 2024
Source: People's Republic of China (PRC)
Launch site: Jiuquan Satellite Launch Center, China (JSC)
Your satellite tracking list
Your tracking list is empty




NASA's NSSDC Master Catalog

Two Line Element Set (TLE):
1 61906U 24205N   24326.18661008  .00016657  00000-0  89162-3 0  9996
2 61906  97.4750  38.1979 0013550 253.7171 106.2571 15.15029356  1485
Source of the keplerian elements: AFSPC